Location: Wildlife_Club
(35.6000°N, 81.4330°W)
Time: 01:40:54
(UTC-04:00)

Iridium 56 - Visible Passes

Search period start: 18 September 2014 00:00
Search period end: 28 September 2014 00:00
Orbit: 776 x 779 km, 86.4° (Epoch: 17 September)

Date Brightness Start Highest point End Pass type
(mag) Time Alt. Az. Time Alt. Az. Time Alt. Az.
18 Sep 7.0 04:23:03 31° ESE 04:24:00 34° E 04:28:39 10° NNE visible
18 Sep 6.6 06:03:35 21° W 06:04:43 23° W 06:08:49 10° NNW visible
19 Sep 7.9 03:50:21 18° E 03:50:43 18° E 03:54:07 10° NE visible
19 Sep 5.8 05:30:52 43° W 05:31:01 43° W 05:35:59 10° NNW visible
20 Sep 5.6 04:58:06 69° NNW 04:58:06 69° NNW 05:02:40 10° N visible
21 Sep 6.7 04:25:16 40° NE 04:25:16 40° NE 04:28:59 10° NNE visible
21 Sep 7.2 06:05:46 15° WNW 06:05:46 15° WNW 06:08:01 10° NW visible
22 Sep 7.7 03:52:23 22° NE 03:52:23 22° NE 03:54:52 10° NNE visible
22 Sep 6.8 05:32:54 24° NW 05:32:54 24° NW 05:35:41 10° NNW visible
23 Sep 8.5 03:19:28 11° NE 03:19:28 11° NE 03:19:52 10° NE visible
23 Sep 6.8 04:59:58 30° NNW 04:59:58 30° NNW 05:02:38 10° N visible
24 Sep 7.3 04:27:01 25° N 04:27:01 25° N 04:29:10 10° N visible
25 Sep 8.0 03:54:01 17° NNE 03:54:01 17° NNE 03:55:20 10° NNE visible
25 Sep 7.6 05:34:31 12° NW 05:34:31 12° NW 05:35:09 10° NNW visible
26 Sep 7.6 05:01:30 15° NNW 05:01:30 15° NNW 05:02:27 10° NNW visible
27 Sep 7.9 04:28:26 15° N 04:28:26 15° N 04:29:13 10° N visible
